Weather Roundup
Issued by NWS

Home | Current Version | Previous Version | Text Only | Print | Product List | Glossary On
Versions: 1 2 3 4 5 6 7 8 9 10 11 12 13 14 15 16 17 18 19 20 21 22 23 24 25 26 27 28 29 30 31 32 33 34 35 36 37 38 39 40 41 42 43 44 45 46 47 48 49 50
000
NZUS93 KARX 301959
HRRWXR

CURRENT HOURLY OBSERVATIONS ACROSS
MUCH OF THE UPPER MISSISSIPPI VALLEY
NATIONAL WEATHER SERVICE LA CROSSE WI
300 PM CDT THU MAR 30 2017


...SOUTHEAST MINNESOTA...


CITY           SKY/WX    TMP DP  RH WIND       PRES   REMARKS
ROCHESTER      LGT RAIN  38  37  97 E15       29.77S WCI  29
ROCHESTER/MAYO CLOUDY    39  38  97 NE13G18   29.78S WCI  31
WINONA         DRIZZLE   41  36  81 E12G17    29.81S
AUSTIN         CLOUDY    37  36  93 E14G21    29.75F WCI  29
ALBERT LEA     LGT RAIN  37  37 100 NE18      29.75F WCI  27
DODGE CENTER   CLOUDY    39  36  87 E15       29.78R WCI  31
PRESTON        CLOUDY    37  34  90 NE12      29.75F WCI  29
OWATONNA       CLOUDY    39  36  87 E15G23    29.79S WCI  31
FARIBAULT      CLOUDY    41  37  87 NE9       29.81S
$$

...ELSEWHERE IN MINNESOTA...


CITY           SKY/WX    TMP DP  RH WIND       PRES   REMARKS
MINNEAPOLIS    CLOUDY    46  34  62 E14G23    29.83S
INTNL FALLS    SUNNY     53  33  46 E3        29.90F
DULUTH         SUNNY     48  31  51 E14       29.89F
RED WING       CLOUDY    43  36  75 E10       29.81S
REDWOOD FALLS  CLOUDY    46  37  71 NE9       29.82S
MANKATO        CLOUDY    40  36  86 NE10G20   29.80F WCI  33
WORTHINGTON    CLOUDY    39  37  92 NE15      29.78S WCI  31
FAIRMONT       CLOUDY    39  37  92 NE14      29.78S WCI  31
$$

...SOUTHWEST WISCONSIN...


CITY           SKY/WX    TMP DP  RH WIND       PRES   REMARKS
LA CROSSE      CLOUDY    41  36  82 E13G20    29.79S
PRAIRIE DU CHI CLOUDY    39  38  97 NE8       29.71F FOG     WCI  34
BOSCOBEL       CLOUDY    41  38  89 NE6       29.72F FOG
LONE ROCK      NOT AVBL
PLATTEVILLE    CLOUDY    40  39  98 NE14G21   29.67S WCI  32
FORT MC COY    CLOUDY    38  36  90 NE9       29.79F WCI  32
MAUSTON-NEW LI RAIN      38  36  92 NE10G20   29.76F WCI  30
VIROQUA        CLOUDY    38  37  96 NE13      29.75S WCI  30
WIS DELLS      LGT RAIN  37  36  93 NE9G26    29.73F WCI  31
$$

...ELSEWHERE IN WISCONSIN...


CITY           SKY/WX    TMP DP  RH WIND       PRES   REMARKS
MILWAUKEE      RAIN      39  37  92 NE12      29.75S FOG     WCI  32
MADISON        LGT RAIN  39  37  92 E22G30    29.70F WCI  29
GREEN BAY      LGT SNOW  34  34 100 NE20      29.86F FOG     WCI  23
EAU CLAIRE     NOT AVBL
BLACK RVR FLS  CLOUDY    40  34  80 E13G23    29.80F WCI  33
MEDFORD        CLOUDY    39  33  78 E16       29.84F WCI  30
WAUSAU         LGT RAIN  36  34  92 NE8G20    29.86F WCI  30
WIS RAPIDS     LGT RAIN  37  36  96 E10G22    29.83F WCI  30
MARSHFIELD     LGT RAIN  38  34  85 E13       29.82F WCI  30
RICE LAKE      CLOUDY    47  32  57 E9        29.86F
$$

...NORTHEAST IOWA...


CITY           SKY/WX    TMP DP  RH WIND       PRES   REMARKS
WATERLOO       CLOUDY    41  37  86 NE18G26   29.68S
DUBUQUE        LGT RAIN  38  38 100 NE17      29.64F FOG     WCI  28
DECORAH        CLOUDY    39  37  93 NE8G16    29.71F FOG     WCI  34
MASON CITY     CLOUDY    40  37  89 NE13      29.73F WCI  32
CHARLES CITY   LGT RAIN  41  41 100 NE17G25   29.70F
OELWEIN        CLOUDY    39  39 100 NE22      29.67S WCI  29
$$

...ELSEWHERE IN IOWA...


CITY           SKY/WX    TMP DP  RH WIND       PRES   REMARKS
DES MOINES     CLOUDY    45  42  89 N14       29.63F
IOWA CITY      CLOUDY    44  41  89 NE17      29.62S
FORT DODGE     CLOUDY    43  37  81 NE12      29.71F
MARSHALLTOWN   CLOUDY    42  40  92 NE15      29.65F
CEDAR RAPIDS   CLOUDY    41  41 100 NE18G26   29.61F
$$

...NORTHERN ILLINOIS...


CITY           SKY/WX    TMP DP  RH WIND       PRES   REMARKS
CHICAGO-OHARE  LGT RAIN  43  40  89 NE17G24   29.58F
CHICAGO-MIDWAY LGT RAIN  44  43  96 NE23G31   29.55F FOG
MOLINE         CLOUDY    45  42  89 NE13      29.58F FOG
ROCKFORD       CLOUDY    43  40  89 E30G39    29.50F
PEORIA         CLOUDY    54  52  93 NE8       29.56R
$$

NOTE: "FAIR" INDICATES FEW OR NO CLOUDS BELOW 12,000 FEET WITH NO
SIGNIFICANT WEATHER AND/OR OBSTRUCTIONS TO VISIBILITY. WIND
SPEEDS ARE IN MILES-PER-HOUR.




USA.gov is the U.S. government's official web portal to all federal, state and local government web resources and services.